Location: Rounton
(54.4000°N, 1.3500°W)
Time: 01:14:25
(UTC+00:00)

Altair - Pass Details

Date: 08 December 2021
Orbit: 1501 x 1683 km, 47.2° (Epoch: 19 January)

Event Time Altitude Azimuth Distance (km) Brightness Sun altitude
Rises 17:44:28 0° 264° (W) 4,748 11.7 -16.5°
Reaches altitude 10° 17:47:38 10° 260° (W) 3,741 10.8 -17.0°
Maximum altitude 17:56:42 56° 187° (S) 1,771 7.9 -18.2°
Enters shadow 18:03:51 17° 116° (ESE) 3,134 8.7 -19.3°
